Weather in Sonskoye

Russia / Republic of Khakassia     54°09′48″N   90°13′07″E
temp.,
°C
wind,
m/s
gust,
m/s
humid.,
%
clouds,
%
prec.,
mm/h
press.,
hPa
HPBL,
m
20 january, wed
wed2001:00−22ssw23840 0.0 102229
04:00−23wsw22840 0.0 102320
07:00−26n11900 0.0 102720
10:00−26sse119414 0.0 102920
13:00−21ene129114 0.0 1030177
16:00−23ene119853 0.0 102941
19:00−26sse119846 0.0 103119
22:00−25s12913 0.0 103120
21 january, thu
thu2101:00−24s12813 0.0 103020
04:00−23sse227526 0.0 102820
07:00−20sse227762 0.0 102635
10:00−16s2376100 0.0 1023108
13:00−12sse2387100 0.0 1021122
16:00−9ssw2489100 0.0 101998
19:00−11s2285100 0.0 101927
22:00−12ssw3387100 0.0 101738
22 january, fri
fri2201:00−12ssw3386100 0.0 101553
04:00−10ssw1187100 0.0 101224
07:00−9sse1290100 0.0 100931
10:00−9s2393100 0.1 100682
13:00−6s1392100 0.1 1004145
16:00−6nw0195100 0.0 100538
19:00−11nw1195100 0.0 100821
22:00−12nnw1195100 0.1 101021
23 january, sat
sat2301:00−13ne1199100 0.1 101421
04:00−14n1198100 0.1 101927
07:00−14wnw3679100 0.1 1024134
10:00−17wsw358091 0.0 102871
13:00−14ssw238195 0.0 1029256
16:00−15sw1282100 0.0 103081
19:00−18ssw3578100 0.0 103276
22:00−20ssw3383100 0.0 103346
24 january, sun
sun2401:00−20ssw3383100 0.0 103344
04:00−20ssw3383100 0.0 103458
07:00−21ssw3484100 0.0 103474
10:00−20ssw3584100 0.0 1035170
13:00−16sw3871100 0.0 10341075
16:00−16sw2479100 0.0 1034192
19:00−20sw2384100 0.0 103636
22:00−22w2386100 0.0 103954